STARLINK-1587, 46157

Orbit data source: Space-Track

STARLINK-1587, 46157 is a payload satellite owned by SpaceX/Seattle (US) in LEO that was launched on Tue, 18 Aug 2020 UTC via an FALCON 9 launch vehicle from the Air Force Eastern Test Range (AFETR). Payload-class satellites include a variety of spacecraft equipped with specific instruments for various scientific and technological missions. These include communications satellites like Starlink; space stations such as the ISS; scientific satellites like the Hubble; Earth observation satellites from companies like Planet Labs, Umbra, and HawkEye 360; GPS; miniature CubeSats for education and research; and military/defense satellites.

Loading next visibility...
Identifier
46157, 2020-057AS
Orbit
LEO
Country
Flag of USUS
Related business
Manufacturer
SpaceX/Seattle
Mission
Partially operational Commercial Communications
Bus & Motor
STARLINK, Unknown motor
Mass
260 kg wet, ~248 kg dry
Launch date (UTC)
2020-08-18 (6 years ago)
Launch vehicle
FALCON 9
Launch site
Air Force Eastern Test Range (AFETR)
Object type
Payload
Rocket body
Debris
Shape & HBR
Box + 1 Pan, 10.1 m
Radar Cross Section
13.562 m², Large (>1 m²)

Expand to show TLE details & history
Last TLE update: 14 hours ago

TLE from 14 hours ago
0 STARLINK-1587
1 46157U 20057AS  26072.18261619  .00995207  50941-3  17083-2 0  9993
2 46157  53.0279 198.2540 0008002 325.5067  34.5443 16.01877471308037
Epoch: 2026-03-13T04:22Z
TLE epoch observation values (Epoch: 2026-03-13T04:22:58.038Z)
Latitude
-0.00002°
Longitude
-38.30966°
Altitude
265.753 km
Speed
7.752 km/s
True Right ascension
13h 13m 00s
True Declination
0° 00' 00"
Sunlit
Object was in full shadow at epoch
Visualization orbit readout
Latitude
Unknown
Longitude
Unknown
Altitude
Unknown
Speed
Unknown
Apparent Right ascension
Unknown
Apparent Declination
Unknown
Sunlit
N/A
Visualization observer readout
Local Sidereal Time
22:32:54
Azimuth
Unknown
Elevation
Unknown
Doppler factor
Unknown
Orbital elements
Apogee altitude
274.825 km
Perigee altitude
264.186 km
Semi-major axis
6,647.643 km
Eccentricity
0.0008
Inclination
53.0279°
RAAN
198.254°
Arg. of periapsis
325.5067°
True anomaly
34.59634°
Mean anomaly
34.5443°
Eccentric anomaly
34.57031°
Mean motion
4.00444 °/min
Orbital period
89.9 mins
BSTAR
0.0017083
Loading maneuver chart data...
Computing Atmospheric mass density...

Documentation

Showing up to 5 results
|